Flugplatz Leuzendorf Segelflug (UL)

Hier findest Du alle Informationen zum Flugplatz Leuzendorf Segelflug (UL).

Informationen für Piloten zum Flugplatz Leuzendorf Segelflug

Hier findest Du alle relevanten Informationen, die Du als Pilot benötigst, um Leuzendorf Segelflug anzufliegen.

Flugplatz: Leuzendorf Segelflug ICAO-Code: UL Flugplatz
Frequenz Turm: 123.500 Mhz GAFOR Gebiet: 55
Frequenz Ground: 123.350 Mhz Mogas: nein
Platzrunde: S 2000 ft Landegebühr: -
Platzhöhe: Sunrise: 05:10 Uhr UTC
Pisten: 08/26 - 870 m x 25 m, GRAS Sunset: 17:11 Uhr UTC

Mitglieder, die in Leuzendorf Segelflug fliegen

Flugwetter am Flugplatz Leuzendorf Segelflug

Die METAR Information stammen aus EDDN (74.18 km entfernt).

METAR Code:
2022/09/21 14:50
EDDN 211450Z AUTO 04006KT 360V060 9999 FEW044 15/06 Q1025 NOSIG

Flugschulen am Flugplatz Leuzendorf Segelflug

Am Flugplatz Leuzendorf Segelflug gibt es leider keine Flugschule.

Benachbarte Flugplätze und Flugschulen

Es gibt 24 weitere Flugplätze in einem Umkreis von 50 km um den Flugplatz Leuzendorf Segelflug.

Jetzt anmelden

Passwort vergessen

Umfrage Archiv

Sendet Ihr ADS-B und/oder FLARM?

Ja
83.8 %
Nein
16.2 %
Stimmen: 222 | Diskussion
Anzeige: Roland Aircraft
Statistik Alle Mitglieder

Aktuell sind 59 Besucher online, davon 3 Mitglieder und 56 Gäste.


Mitglieder online:
NRW-Aviator  Stefan G.  tweety08 

Anzeige: ULPower Aero Engines Anzeige: Pocket FMS